Volver al catálogo

AUREOLE 3

ActivoCienciaPO
NORAD 12848·PAYLOAD·🇫🇷 France

Lanzado Sep 21, 1981 desde Plesetsk Cosmodrome

Loading…

Próximos Pases (próximas 24 horas)

TLE

ActualizadoSource: Space-Track

Época: Sep 14, 2026, 13:53 UTC

1 12848U 81094A   26257.57877170  .00004727  00000-0  21419-3 0  9999
2 12848  82.4661 206.5396 0453056 273.0796  81.8674 14.60246600273296

Sigue AUREOLE 3 en tiempo real con AllMySat

Download on the App Store